Regional Weather Roundup
Issued by NWS

Home | Current Version | Previous Version | Text Only | Print | Product List | Glossary Off
Versions: 1 2 3 4 5 6 7 8 9 10 11 12 13 14 15 16 17 18 19 20 21 22 23 24 25 26 27 28

000
ASUS45 KTFX 261910
RWRMT
MONTANA REGIONAL WEATHER ROUNDUP
NATIONAL WEATHER SERVICE GREAT FALLS MT
100 PM MDT FRI AUG 26 2016

NOTE: "FAIR" INDICATES FEW OR NO CLOUDS BELOW 12000 FEET WITH NO
SIGNIFICANT WEATHER AND/OR OBSTRUCTIONS TO VISIBILITY.

MTZ001>007-043-262000-
WEST OF THE DIVIDE

CITY           SKY/WX    TMP DP  RH WIND       PRES   REMARKS
KALISPELL      MOSUNNY   69  42  37 E9        30.03F
MISSOULA       PTSUNNY   70  37  29 E3        30.05F
BUTTE          SUNNY     65  29  25 NE5       30.11F
MULLAN PASS    SUNNY     61  35  37 CALM      30.14F
DEER LODGE       N/A     66  34  30 CALM      30.11F
EUREKA           N/A     72  43  35 S5        30.03F
HAMILTON         N/A     66  37  34 NW3       30.05F
LIBBY            N/A     73  39  29 N3        30.01F
PLAINS           N/A     75  40  28 CALM      30.03F
RONAN            N/A     70  44  38 CALM      30.10F
$$

MTZ008-052>055-262000-
SOUTHWEST MONTANA

CITY           SKY/WX    TMP DP  RH WIND       PRES   REMARKS
BOZEMAN        CLOUDY    67  39  35 CALM      30.08F
DILLON         SUNNY     64  34  32 VRB3      30.08F
W YELLOWSTONE  CLOUDY    63  32  31 W6        30.14F
ENNIS          MOSUNNY   64  32  29 VRB5      30.14F
THREE FORKS      N/A     68 -14   3 NE3       30.07F
TWIN BRIDGES     N/A     67  32  27 SE3       30.07F
$$

MTZ009-010-012-014-046-048-049-054-262000-
EAST SLOPES AND CENTRAL MONTANA

CITY           SKY/WX    TMP DP  RH WIND       PRES   REMARKS
CUT BANK       MOSUNNY   67  40  37 W9        30.06F
GREAT FALLS    PTSUNNY   65  43  44 MISG      30.08F
MALMSTROM AFB  MOSUNNY   62  44  52 S6        30.08F
HELENA         SUNNY     68  40  35 VRB3      30.06F
CHOTEAU          N/A     66  43  42 SW8       30.09F
CONRAD           N/A     65  48  53 N7        30.09F
$$

MTZ011-013-016-021-045-047-050-051-262000-
NORTH CENTRAL MONTANA

CITY           SKY/WX    TMP DP  RH WIND       PRES   REMARKS
HAVRE          CLOUDY    66  46  48 VRB5      30.04F
LEWISTOWN      CLOUDY    61  44  53 VRB6      30.10F
N BAR RANCH    CLOUDY    63  41  45 NW7G16    30.11F
CHINOOK          N/A     64  46  52 W9        30.04F
$$

MTZ017>020-022>027-061-062-262000-
NORTHEAST MONTANA

CITY           SKY/WX    TMP DP  RH WIND       PRES   REMARKS
GLASGOW        PTSUNNY   70  46  42 W8G20     30.00F
JORDAN           N/A     66  44  45 W5        30.04F
SIDNEY         PTSUNNY   73  47  39 S8        29.98F
WOLF POINT     MOSUNNY   73  48  41 SW12G18   30.00F
POPLAR           N/A     68  45  42 W13       30.00F
SCOBEY           N/A     68  45  43 W14       29.97F
$$

MTZ028>42-056>058-262000-
SOUTHCENTRAL AND SOUTHEAST MONTANA

CITY           SKY/WX    TMP DP  RH WIND       PRES   REMARKS
BAKER          SUNNY     70  45  40 S10G16    30.05F
BILLINGS       MOSUNNY   69  38  32 VRB6      30.06F
LIVINGSTON     CLOUDY    68  34  28 VRB5      30.07F
MILES CITY     SUNNY     74  36  25 NW9       30.01F
EKALAKA          N/A     67  50  54 E7        30.04F
FORSYTH          N/A     72  43  35 W8        30.03F
LAUREL           N/A     69  39  33 NE2       30.05F
ROUNDUP          N/A     70  39  32 S6        29.98F
$$

REGIONAL REPORTS...DAKOTAS

CITY           SKY/WX    TMP DP  RH WIND       PRES   REMARKS
WILLISTON      SUNNY     76  41  28 SW13      29.98F
MINOT          MOSUNNY   74  43  32 S15       29.99F
DICKINSON      PTSUNNY   65  44  46 SW21G29   30.03S
CROSBY           N/A     72  45  37 S7        30.00F
WATFORD CITY     N/A     73  37  27 SW10G17   30.00F
BISMARCK       CLOUDY    71  51  49 S14G24    30.09F
GRAND FORKS    PTSUNNY   77  52  41 SW13      30.04S
FARGO          PTSUNNY   75  49  39 SW13      30.09R
BUFFALO SD       N/A     54  51  90 NE13      30.04S
RAPID CITY     CLOUDY    61  53  75 S13       30.10F
$$

REGIONAL REPORTS...WYOMING/IDAHO/WASHINGTON

CITY           SKY/WX    TMP DP  RH WIND       PRES   REMARKS
GILLETTE       SUNNY     69  43  38 VRB6      30.07F
SHERIDAN       MOSUNNY   72  42  34 NE6       30.08F
BUFFALO WY     CLOUDY    67  39  35 N10       30.12F
CODY           MOSUNNY   59  45  58 N6        30.11F
YELLOWSTONE LA   N/A     56  34  43 E8        30.22F
IDAHO FALLS    MOSUNNY   72  31  22 SW10      30.06F
SALMON         SUNNY     70  34  26 N3        30.03F
BOISE          SUNNY     79  34  19 NW3       29.99F
SPOKANE        MOSUNNY   79  37  22 CALM      29.98F
$$

REGIONAL REPORTS...ALBERTA

CITY           SKY/WX    TMP DP  RH WIND       PRES   REMARKS
EDMONTON       MOSUNNY   66  50  55 S6        29.92F
CALGARY        PTSUNNY   64  43  45 VRB6      29.99F
LETHBRIDGE     MOSUNNY   66  46  48 CALM      30.02F
MEDICINE HAT   PTSUNNY   66  50  55 S2        30.01F
WATERTON GATE    N/A     66  39  37 SW7         N/A
CARDSTON         N/A     68  41  37 NW2         N/A
MILK RIVER       N/A     68  43  40 N5          N/A
ONEFOUR          N/A     63  45  51 W7          N/A
$$

REGIONAL REPORTS...SASKATCHEWAN

CITY           SKY/WX    TMP DP  RH WIND       PRES   REMARKS
SWIFT CURRENT  MOSUNNY   57  52  82 NW15      29.98F
REGINA         MOSUNNY   64  52  63 SW8G21    29.92F
SASKATOON      PTSUNNY   61  54  77 NW14      29.93F
CYPRESS HILLS    N/A     55  43  62 NW7G17      N/A
VAL MARIE        N/A     66  43  42 NW14        N/A
ROCKGLEN         N/A     63  48  59 W15         N/A
ASSINIBOIA       N/A     68  50  52 S5          N/A
$$




USA.gov is the U.S. government's official web portal to all federal, state and local government web resources and services.